レモン彗星

C/2024 J4 ( Lemmon )

English version
Home page
Updated on September 4, 2024

---------------------------------------------------------------------

・ プロフィール

発見日 2024年5月11日
発見光度 20.1等
発見者 K. W. Wierzchos (Mt. Lemmon Survey)

・ 写真集

・ 軌道要素

Epoch 2024 Oct. 17.0 TT = JDT 2460600.5
T 2025 Apr. 26.14603 TT                                 Rudenko
q   5.6949351            (2000.0)            P               Q
z  +0.0002333      Peri.  127.86707     -0.45874265     -0.83886068
 +/-0.0000066      Node    19.29698     -0.78058445     +0.22288299
e   0.9986713      Incl.  117.53504     +0.42455046     -0.49662453
>From 184 observations 2024 May 11-Aug. 12, mean residual 0".4.

・ 光度変化

        m1 = 8.0 + 5 logΔ + 10.0 log r

---------------------------------------------------------------------

軌道要素はM.P.E.C. 2024-Q20に掲載されたものです。
光度グラフはComet for Windowsで作成したものです。

---------------------------------------------------------------------

Copyright(C) Seiichi Yoshida (comet@aerith.net). All rights reserved.